Starlink 11388

operational
NORAD ID: 62092 Int'l Des: 2024-220 Owner: SPXS Country: US Constellation: starlink
LEOCIRCULAR

关于 Starlink 11388

正在加载描述...

实时位置

正在加载3D地球...

即将过境

高度历史

Altitude vs Time

uPlot chart will show altitude changes over time

两行轨道根数

1 62092U 24220E 25258.39951310 .00601523 00000-0 43450-2 0 9997
2 62092 43.0010 19.7506 0004740 293.5433 66.4937 15.70926111 47381
Epoch: Sep 15, 2025 • Age: 12 hours

当前状态

高度 352.9 km
速度 7.70 km/s
星下点 7.04°N, 61.58°E
发射日期 Nov 25, 2024
运行时间 0.8 years
类型 internet

技术详情

分类 Payload
质量 960.00 kg
干质量 910.00 kg
总质量 960.00 kg
长度 0.30 m
直径 4.10 m
跨度 29.00 m
形状 Box + pan
制造商 SPXS
平台类型 Starlink V2MD
阶段状态 In Orbit
所有者/国家 SPXS/US

大型星座

Loading constellations...